This demonstration page uses our WeatherBlox Daily Observations layout. Learn more.

Left ArrowRight Arrow

38.20091, -84.87328

Hourly Observations for August 27, 2017

Temp ( °F °C ) Dew Point ( °F °C ) Humidity (%) Winds ( mph kmh ) Pressure ( in mb ) Visibility ( mi km ) Precip ( " mm )
12:53 am 00:53 Clear 63 17.2 53 11.7 70 70 E 7 11 30.14 1021 10 16 0.00 0.00
1:53 am 01:53 Clear 62 16.7 53 11.7 73 73 ENE 3 6 30.14 1021 10 16 0.00 0.00
2:53 am 02:53 Clear 62 16.7 53 11.7 73 73 NE 3 6 30.14 1021 10 16 0.00 0.00
3:53 am 03:53 Clear 62 16.7 53 11.7 73 73 NNE 3 6 30.13 1020 10 16 0.00 0.00
4:53 am 04:53 Clear 57 13.9 52 11.1 83 83 Calm 30.12 1020 10 16 0.00 0.00
5:53 am 05:53 Clear 57 13.9 52 11.1 83 83 Calm 30.12 1020 10 16 0.00 0.00
6:53 am 06:53 Clear 56 13.3 51 10.6 84 84 Calm 30.12 1020 10 16 0.00 0.00
7:53 am 07:53 Sunny 58 14.4 51 10.6 78 78 Calm 30.13 1020 10 16 0.00 0.00
8:53 am 08:53 Sunny 63 17.2 53 11.7 70 70 E 3 6 30.13 1020 10 16 0.00 0.00
9:53 am 09:53 Sunny 68 20 53 11.7 59 59 ENE 6 9 30.12 1020 10 16 0.00 0.00
10:53 am 10:53 Sunny 73 22.8 56 13.3 55 55 NE 7 11 30.10 1019 10 16 0.00 0.00
11:53 am 11:53 Sunny 77 25 57 13.9 50 50 VRB 5 7 30.11 1020 10 16 0.00 0.00
12:53 pm 12:53 Sunny 80 26.7 56 13.3 44 44 VRB 3 6 30.10 1019 10 16 0.00 0.00
1:53 pm 13:53 Sunny 82 27.8 54 12.2 38 38 Calm 30.06 1018 10 16 0.00 0.00
2:53 pm 14:53 Sunny 83 28.3 55 12.8 38 38 Calm 30.05 1018 10 16 0.00 0.00
3:53 pm 15:53 Sunny 85 29.4 53 11.7 33 33 Calm 30.02 1017 10 16 0.00 0.00
4:53 pm 16:53 Sunny 84 28.9 56 13.3 38 38 ESE 3 6 30.01 1016 10 16 0.00 0.00
5:53 pm 17:53 Sunny 84 28.9 57 13.9 40 40 ESE 8 13 30.00 1016 10 16 0.00 0.00
6:53 pm 18:53 Sunny 83 28.3 56 13.3 40 40 SE 5 7 30.01 1016 10 16 0.00 0.00
7:53 pm 19:53 Sunny 79 26.1 58 14.4 49 49 ESE 5 7 30.00 1016 10 16 0.00 0.00
8:53 pm 20:53 Clear 75 23.9 58 14.4 55 55 E 5 7 30.01 1016 10 16 0.00 0.00
9:53 pm 21:53 Clear 68 20 59 15 73 73 Calm 30.02 1017 10 16 0.00 0.00
10:53 pm 22:53 Clear 67 19.4 59 15 76 76 Calm 30.01 1016 10 16 0.00 0.00
11:53 pm 23:53 Clear 66 18.9 59 15 78 78 Calm 30.00 1016 10 16 0.00 0.00

Powered by AerisWeather